sat.trackr.live / text

‹ back to catalog

UNKNOWN

NORAD 81111

UNKNOWN UNKNOWN UNKNOWN

§ Identity

Operator
Country
Launch date
Launch site
Launch vehicle
Mass (kg)
RCS (m²)

External: N2YO · Heavens-Above

§ Orbital elements

Epoch: 2026-05-23T07:28:21.563616Z

Period
189.47 min
Inclination
62.8628°
Eccentricity
0.3845732
Mean motion
7.60022056 rev/d
Perigee alt
346.9 km
Apogee alt
8,751.7 km
Semi-major
10,927.4 km
B*
1.5858e-3
RAAN
226.5694°
Arg perigee
3.7040°
Mean anomaly
358.5139°
Rev number
28,419

§ Raw data

UNKNOWN1 81111U          26143.31136069  .00008632  00000+0  15858-2 0  99942 81111  62.8628 226.5694 3845732   3.7040 358.5139  7.60022056284192

JSON: /api/v1/satellites/81111 · /tle

For live sub-satellite position, see the globe view (requires WebGL).

§ Visibility from observer

Set your observer location to see the next 7 days of passes ≥ 10°. The values pass through the URL so the page stays shareable.

No JS? Fill the form by hand. The geolocation button needs JavaScript.